Muskegon, MI

8:14 PM EST on December 07, 2019 (GMT -0500)
Muskegon County

Weather History for KMKG - November, 2019

Change the Weather History Date:

Friday, November 22, 2019

  Actual Average Record
Temperature  
Mean Temperature 32 °F 38 °F  
Max Temperature 40 °F 44 °F 67 °F (1934)
Min Temperature 24 °F 32 °F 14 °F (1971)
Degree Days  
Heating Degree Days 33 27  
Month to date heating degree days 655 513  
Since 1 July heating degree days 1161 1136  
Cooling Degree Days 0 0  
Month to date cooling degree days 0 0  
Year to date cooling degree days 640 566  
Moisture  
Dew Point 23 °F    
Average Humidity 68    
Maximum Humidity 88    
Minimum Humidity 56    
Precipitation  
Precipitation 0.00 in 0.12 in 1.20 in (1909)
Month to date precipitation 2.09 2.51  
Year to date precipitation 42.91 30.09  
Snow  
Snow 0.00 in 0.30 in 6.00 in (1909)
Month to date snowfall 10.9 3.1  
Since 1 July snowfall 10.9 3.3  
Since 1 September snowfall 10.9 3.3  
Snow Depth 0.00 in    
Sea Level Pressure  
Sea Level Pressure 30.10 in    
Wind  
Wind Speed 11 mph ()    
Max Wind Speed 23 mph    
Max Gust Speed 34 mph    
Visibility 10.0 miles    
Events      
T = Trace of Precipitation, MM = Missing Value Source: Averaged Metar Reports

Daily Weather History Graph

Daily Weather History Graph

Search for Another Location

Airport or City:

Astronomy

Nov. 22, 2019 Rise Set
Actual Time 7:46 AM EST 5:15 PM EST
Civil Twilight 7:15 AM EST 5:46 PM EST
Nautical Twilight 6:40 AM EST 6:21 PM EST
Astronomical Twilight 6:06 AM EST 6:55 PM EST
Moon 2:41 AM EST (11/22) 3:24 PM EST (11/22)
Length of Visible Light 10h 31m
Length of Day
9h 29m
Waning Crescent, 20% of the Moon is Illuminated
Nov 22
Waning Crescent
Nov 26
New
Dec 4
First Quarter
Dec 12
Full
Dec 18
Last Quarter

Hourly Weather History & Observations

Time (EST) Temp. Windchill Dew Point Humidity Pressure Visibility Wind Dir Wind Speed Gust Speed Precip Events Conditions
12:55 AM 37.9 °F 27.9 °F 28.0 °F 68% 29.96 in 10.0 mi NNW 19.6 mph 26.5 mph N/A   Overcast
1:55 AM 37.9 °F 28.5 °F 27.0 °F 65% 29.98 in 10.0 mi NNW 17.3 mph 25.3 mph N/A   Overcast
2:19 AM 37.9 °F 29.2 °F 27.0 °F 65% 29.98 in 10.0 mi NW 15.0 mph 24.2 mph N/A   Overcast
2:30 AM 37.9 °F 28.5 °F 28.0 °F 68% 29.99 in 10.0 mi NW 17.3 mph 27.6 mph N/A   Overcast
2:55 AM 37.0 °F 29.3 °F 27.0 °F 67% 30.02 in 10.0 mi WNW 11.5 mph 23.0 mph N/A   Overcast
3:23 AM 37.0 °F 28.1 °F 25.0 °F 62% 30.01 in 10.0 mi WNW 15.0 mph 25.3 mph N/A   Overcast
3:55 AM 37.0 °F 28.9 °F 25.0 °F 62% 30.02 in 10.0 mi WNW 12.7 mph 23.0 mph N/A   Overcast
4:06 AM 36.0 °F 25.3 °F 26.1 °F 67% 30.01 in 10.0 mi NNW 19.6 mph 27.6 mph N/A   Overcast
4:55 AM 34.0 °F 23.0 °F 23.0 °F 64% 30.06 in 10.0 mi NNW 18.4 mph 27.6 mph N/A   Overcast
5:55 AM 34.0 °F 23.8 °F 23.0 °F 64% 30.09 in 10.0 mi NNW 16.1 mph 21.9 mph N/A   Overcast
6:55 AM 33.1 °F 23.9 °F 21.0 °F 61% 30.09 in 10.0 mi North 12.7 mph 28.8 mph N/A   Overcast
7:55 AM 33.1 °F 22.6 °F 21.0 °F 61% 30.12 in 10.0 mi NNW 16.1 mph 24.2 mph N/A   Overcast
8:45 AM 33.1 °F 26.9 °F 21.0 °F 61% 30.12 in 10.0 mi North 6.9 mph 18.4 mph N/A   Overcast
8:55 AM 33.1 °F 25.5 °F 21.0 °F 61% 30.15 in 10.0 mi NNW 9.2 mph - N/A   Overcast
9:55 AM 34.0 °F 26.0 °F 21.9 °F 61% 30.17 in 10.0 mi NNW 10.4 mph - N/A   Overcast
10:13 AM 34.0 °F 25.5 °F 21.9 °F 61% 30.16 in 10.0 mi NNW 11.5 mph - N/A   Overcast
10:55 AM 34.0 °F 25.0 °F 21.0 °F 59% 30.19 in 10.0 mi NNW 12.7 mph - N/A   Overcast
11:55 AM 35.1 °F 26.9 °F 21.9 °F 59% 30.19 in 10.0 mi North 11.5 mph - N/A   Overcast
12:55 PM 35.1 °F 26.9 °F 23.0 °F 61% 30.18 in 10.0 mi NNW 11.5 mph - N/A   Overcast
2:55 PM 34.0 °F 26.6 °F 21.9 °F 61% 30.17 in 10.0 mi NW 9.2 mph - N/A   Overcast
3:55 PM 34.0 °F 26.6 °F 23.0 °F 64% 30.16 in 10.0 mi NNW 9.2 mph - N/A   Overcast
4:55 PM 33.1 °F 28.7 °F 23.0 °F 66% 30.16 in 10.0 mi Variable 4.6 mph - N/A   Mostly Cloudy
5:39 PM 30.9 °F 27.5 °F 21.9 °F 69% 30.14 in 10.0 mi WSW 3.5 mph - N/A   Scattered Clouds
5:55 PM 30.9 °F 27.5 °F 21.9 °F 69% 30.16 in 10.0 mi WNW 3.5 mph - N/A   Scattered Clouds
6:55 PM 30.0 °F - 21.9 °F 72% 30.15 in 10.0 mi Calm Calm - N/A   Scattered Clouds
7:55 PM 27.0 °F - 21.9 °F 81% 30.14 in 10.0 mi Calm Calm - N/A   Scattered Clouds
8:55 PM 27.0 °F 23.0 °F 21.9 °F 81% 30.12 in 10.0 mi SE 3.5 mph - N/A   Mostly Cloudy
9:55 PM 25.0 °F 20.7 °F 21.0 °F 85% 30.11 in 10.0 mi SE 3.5 mph - N/A   Scattered Clouds
10:55 PM 25.0 °F - 21.0 °F 85% 30.10 in 10.0 mi Calm Calm - N/A   Scattered Clouds
11:12 PM 27.0 °F 23.0 °F 21.9 °F 81% 30.07 in 10.0 mi SSW 3.5 mph - N/A   Mostly Cloudy
11:23 PM 28.9 °F 22.8 °F 23.0 °F 78% 30.06 in 10.0 mi SW 5.8 mph - N/A   Scattered Clouds
11:55 PM 30.9 °F 23.5 °F 25.0 °F 79% 30.08 in 10.0 mi SSW 8.1 mph - N/A   Partly Cloudy